Date,TemperatureHighF,TemperatureAvgF,TemperatureLowF,DewpointHighF,DewpointAvgF,DewpointLowF,HumidityHigh,HumidityAvg,HumidityLow,PressureMaxIn,PressureMinIn,WindSpeedMaxMPH,WindSpeedAvgMPH,GustSpeedMaxMPH,PrecipitationSumIn
2013-2-1,58,46,32,39,29,19,67,53,43,30.42,30.19,6,1,17,0.00
2013-2-2,65,56,44,48,41,35,81,60,36,30.35,30.17,6,1,13,0.00
2013-2-3,69,55,35,41,34,31,88,51,26,30.37,30.03,5,1,12,0.00
2013-2-4,70,60,53,58,50,33,88,69,41,30.03,29.82,2,1,10,0.02
2013-2-5,68,60,56,62,57,53,94,88,73,30.05,29.91,3,1,10,0.01
2013-2-6,73,62,56,63,56,54,94,84,58,30.05,29.89,6,1,16,0.02
2013-2-7,79,64,55,60,54,45,92,74,35,30.13,29.84,12,4,25,0.01
2013-2-8,62,53,44,47,36,27,75,55,26,30.28,30.13,8,2,17,0.00
2013-2-9,58,49,44,56,45,36,94,87,71,30.19,29.79,6,3,18,0.00
2013-2-10,66,58,46,63,43,31,95,62,28,30.04,29.69,8,3,29,0.49
2013-2-11,53,50,47,41,36,32,77,59,49,30.18,30.03,5,2,13,0.02
2013-2-12,49,46,42,47,44,38,93,89,78,30.07,29.87,10,2,20,0.30
2013-2-13,55,45,38,40,36,34,86,72,47,30.19,30.05,9,2,17,0.01
2013-2-14,67,52,36,45,38,32,89,61,29,30.13,30.03,3,0,10,0.00
2013-2-15,53,47,40,40,30,22,72,53,34,30.41,30.11,6,2,16,0.00
2013-2-16,54,50,40,31,29,25,60,45,37,30.44,30.21,5,1,12,0.00
2013-2-17,70,65,51,39,37,30,44,35,30,30.21,29.95,5,3,18,0.00
2013-2-18,77,64,52,58,43,32,81,48,33,30.16,29.80,13,6,23,0.00
2013-2-19,63,52,39,36,30,28,69,45,29,30.37,30.16,6,2,15,0.00
2013-2-20,51,44,40,40,37,33,88,76,51,30.20,29.81,6,3,16,0.16
2013-2-21,67,52,41,51,40,32,93,68,27,29.96,29.62,12,4,26,0.10
2013-2-22,47,40,32,38,28,24,79,64,49,30.18,29.95,6,2,14,0.02
2013-2-23,53,42,32,32,29,24,83,60,44,30.15,29.96,6,1,14,0.00
2013-2-24,69,52,32,46,38,27,84,62,39,29.97,29.65,7,2,15,0.00
2013-2-25,59,52,40,51,41,31,85,67,41,29.71,29.51,14,5,28,0.03
2013-2-26,56,46,38,35,33,30,76,62,42,29.93,29.70,14,7,26,0.01
2013-2-27,55,45,35,33,29,22,83,56,30,30.26,29.91,12,5,21,0.00
2013-2-28,57,46,36,32,28,25,74,52,33,30.33,30.20,9,4,20,0.00